Weather History for Rogers, AR

Change the Weather History Date:

Saturday, October 6, 2012

  Actual Average Record
Temperature  
Mean Temperature 41 °F -  
Max Temperature 46 °F 69 °F 82 °F (2007)
Min Temperature 36 °F 49 °F 33 °F (2001)
Degree Days  
Heating Degree Days 24    
Moisture  
Dew Point 35 °F    
Average Humidity 82    
Maximum Humidity 93    
Minimum Humidity 59    
Precipitation  
Precipitation 0.03 in - - ()
Sea Level Pressure  
Sea Level Pressure 30.28 in    
Wind  
Wind Speed 5 mph (NNE)    
Max Wind Speed 12 mph    
Max Gust Speed -    
Visibility 10 miles    
Events Rain    
Averages and records for this station are not official NWS values.
T = Trace of Precipitation, MM = Missing Value Source: NWS Daily Summary

Daily Weather History Graph

Daily Weather History Graph

Search for Another Location

Airport:

Trip Planner

Search our weather history database for the weather conditions in past years. The results will help you decide how hot, cold, wet, or windy it might be!

Date:

Astronomy

Oct. 06, 2012 Rise Set
Actual Time 7:16 AM CDT 6:51 PM CDT
Civil Twilight 6:50 AM CDT 7:17 PM CDT
Nautical Twilight 6:20 AM CDT 7:47 PM CDT
Astronomical Twilight 5:50 AM CDT 8:17 PM CDT
Moon 11:15 PM CDT (10/6) 1:03 PM CDT (10/6)
Length of Visible Light 12h 27m
Length of Day
11h 35m
Waning Gibbous, 65% of the Moon is Illuminated
Oct 6
Waning Gibbous
Oct 8
Last Quarter
Oct 15
New
Oct 21
First Quarter
Oct 29
Full

Hourly Weather History & Observations

Time (CDT) Temp. Windchill Dew Point Humidity Pressure Visibility Wind Dir Wind Speed Gust Speed Precip Events Conditions
12:57 AM 39.0 °F 36.8 °F 37.0 °F 93% 30.26 in 10.0 mi NNE 3.5 mph - N/A   Clear
1:57 AM 37.9 °F 34.4 °F 36.0 °F 93% 30.27 in 10.0 mi NNE 4.6 mph - N/A   Clear
2:57 AM 37.9 °F 34.4 °F 35.1 °F 89% 30.27 in 10.0 mi North 4.6 mph - N/A   Clear
3:57 AM 36.0 °F 29.6 °F 34.0 °F 93% 30.26 in 10.0 mi NNE 8.1 mph - N/A   Clear
4:57 AM 37.0 °F 31.0 °F 34.0 °F 89% 30.27 in 10.0 mi NNE 8.1 mph - N/A   Clear
5:57 AM 37.9 °F 32.7 °F 34.0 °F 86% 30.27 in 10.0 mi ENE 6.9 mph - N/A   Clear
6:57 AM 37.9 °F 33.5 °F 34.0 °F 86% 30.28 in 10.0 mi East 5.8 mph - N/A   Scattered Clouds
7:57 AM 39.9 °F 34.5 °F 34.0 °F 79% 30.27 in 10.0 mi East 8.1 mph - 0.00 in   Mostly Cloudy
8:57 AM 41.0 °F 35.8 °F 35.1 °F 79% 30.28 in 10.0 mi NE 8.1 mph - 0.00 in Rain Light Rain
9:57 AM 42.1 °F 38.4 °F 35.1 °F 76% 30.32 in 10.0 mi North 5.8 mph - 0.00 in Rain Light Rain
10:57 AM 42.1 °F 39.2 °F 35.1 °F 76% 30.33 in 10.0 mi North 4.6 mph - 0.00 in Rain Light Rain
11:57 AM 44.1 °F 40.8 °F 36.0 °F 73% 30.31 in 10.0 mi North 5.8 mph - 0.01 in   Overcast
12:57 PM 45.0 °F 43.5 °F 35.1 °F 68% 30.31 in 10.0 mi North 3.5 mph - 0.00 in   Overcast
1:57 PM 46.9 °F - 33.1 °F 59% 30.28 in 10.0 mi North 11.5 mph - N/A   Overcast
2:57 PM 45.0 °F 40.6 °F 36.0 °F 71% 30.26 in 10.0 mi North 8.1 mph - 0.00 in Rain Light Rain
3:57 PM 44.1 °F 40.1 °F 37.0 °F 76% 30.25 in 10.0 mi NNE 6.9 mph - 0.00 in   Overcast
5:57 PM 43.0 °F 39.5 °F 39.0 °F 86% 30.26 in 10.0 mi North 5.8 mph - 0.02 in Rain Light Rain
7:57 PM 39.9 °F - 36.0 °F 86% 30.30 in 10.0 mi Calm Calm - N/A   Overcast
9:57 PM 39.9 °F - 37.0 °F 89% 30.32 in 10.0 mi Calm Calm - N/A   Overcast
11:57 PM 39.9 °F - 37.0 °F 89% 30.31 in 10.0 mi Calm Calm - N/A   Overcast